Hourly Weather Roundup
Issued by NWS Central Illinois

Home | Current Version | Previous Version | Text Only | Print | Product List | Glossary On
Versions: 1 2 3 4 5 6 7 8 9 10 11 12 13 14 15 16 17 18 19 20 21 22 23 24 25 26 27 28 29 30 31 32 33 34 35 36 37 38 39 40 41 42 43 44 45 46 47 48 49 50
000
NZUS43 KILX 270710
HWRILX

AREA WEATHER ROUNDUP
NATIONAL WEATHER SERVICE, LINCOLN IL
200 AM CDT WED JUL 27 2016


CITY           SKY/WX    TMP DP  RH WIND       PRES   REMARKS
BLOOMINGTON    CLEAR     70  68  93 CALM      30.02F
CHAMPAIGN      CLEAR     68  65  90 NE5       30.01F
DANVILLE       CLEAR     65  65  99 CALM      29.98F FOG
DECATUR        CLOUDY    68  65  90 CALM      30.00F
EFFINGHAM      CLOUDY    72  72 100 CALM      30.00F
FLORA          CLEAR     76  74  96 CALM      29.98F
GALESBURG      CLEAR     66  65  97 CALM      29.99F
JACKSONVILLE   CLOUDY    71  69  93 NE3       29.99F
LACON          CLEAR     69  67  95 CALM      29.99F
LAWRENCEVILLE  CLEAR     74  72  93 NE3       29.98F
LITCHFIELD     NOT AVBL
$$


CITY           SKY/WX    TMP DP  RH WIND       PRES   REMARKS
LINCOLN        CLEAR     69  68  98 CALM      30.00F
MACOMB         CLEAR     65  65  97 CALM      30.01F FOG
MATTOON        CLOUDY    68  65  90 NE3       29.99F
MT CARMEL AP   CLEAR     74  72  93 CALM      29.98S
OLNEY-NOBLE AP PTCLDY    72  72 100 CALM      29.99S
PARIS          PTCLDY    65  65 100 CALM      30.01F
PEORIA         CLEAR     72  70  93 CALM      30.00F
PONTIAC        NOT AVBL
RANTOUL        NOT AVBL
ROBINSON       FOG       69  69 100 CALM      29.99F VSB 1/2
SPRINGFIELD    PTCLDY    73  70  90 NE5       30.00F
TAYLORVILLE    PTCLDY    69  68  96 MISG      30.00S
$$

...REGIONAL REPORTS...


CITY           SKY/WX    TMP DP  RH WIND       PRES   REMARKS
CHICAGO O`HARE CLEAR     73  64  73 CALM      29.99F
KANKAKEE       CLEAR     68  67  95 CALM      30.01F
MOLINE         CLEAR     68  64  87 CALM      29.99F
MOUNT STERLING MOCLDY    71  69  93 CALM      30.00S
MOUNT VERNON   PTCLDY    73  70  88 MISG      29.98S
PITTSFIELD     CLEAR     72  71  96 CALM      30.01S
QUINCY         MOCLDY    74  68  81 E5        30.00S
ROCKFORD       CLEAR     69  65  86 S3        30.01F
$$


CITY           SKY/WX    TMP DP  RH WIND       PRES   REMARKS
BURLINGTON     CLEAR     72  68  87 CALM      29.99F
CEDAR RAPIDS   CLEAR     67  66  97 N3        30.01S
DES MOINES     CLOUDY    73  65  75 SE5       30.00F
KIRKSVILLE     CLEAR     63  62  97 N3        30.01F
OTTUMWA        FOG       64  64 100 CALM      30.00S VSB 1/4
ST LOUIS       CLOUDY    78  74  87 E5        29.98F HX  81
$$


CITY           SKY/WX    TMP DP  RH WIND       PRES   REMARKS
TERRE HAUTE    PTCLDY    69  67  93 N3        30.00S
EVANSVILLE     CLEAR     77  74  90 CALM      29.98S
INDIANAPOLIS   PTCLDY    72  66  81 CALM      30.01F
LAFAYETTE      CLEAR     66  66 100 CALM      30.00F
MADISON        CLEAR     66  64  93 MISG      30.00F
MILWAUKEE      CLEAR     75  65  70 CALM      29.99S
$$






USA.gov is the U.S. government's official web portal to all federal, state and local government web resources and services.